Tracking 25734 objects as of 28-May-2022
HD Live streaming from Space Station
objects crossing your sky now

TOS R/B

Track TOS R/B now!


NORAD ID: 22797
Int'l Code: 1993-058D
Perigee: 372.7 km
Apogee: 38,223.7 km
Inclination: 14.9 °
Period: 682.1 minutes
Semi major axis: 25669 km
RCS: 9.198 m2 (large)
Launch date: September 12, 1993
Source: United States (US)
Launch site: AIR FORCE EASTERN TEST RANGE (AFETR)

Note: This is a ROCKET BODY
aabbcc
Your satellite tracking list
Your tracking list is empty




NASA's NSSDC Master Catalog

Two Line Element Set (TLE):
1 22797U 93058D   22147.45903945  .00000403  00000-0  11166-2 0  9991
2 22797  14.8914 245.9992 7372859 149.9460 288.8208  2.11098400216910
Source of the keplerian elements: AFSPC